Location: Unspecified
(42.1900°N, 71.3291°W)
Time: 14:46:58
(UTC-04:00)

CZ-3 Stage 3 - Visible Passes

Search period start: 25 September 2017 00:00
Search period end: 05 October 2017 00:00
Orbit: 425 x 34773 km, 31.0° (Epoch: 24 September)

Date Brightness Start Highest point End Pass type
(mag) Time Alt. Az. Time Alt. Az. Time Alt. Az.
25 Sep 6.7 11:17:22 10° W 11:36:59 53° SSW 18:37:26 10° SSW visible
27 Sep 8.6 14:55:04 10° W 15:44:17 26° SW 18:32:58 10° SW visible
28 Sep 6.6 11:08:12 10° W 11:27:43 51° SSW 18:23:16 10° SSW visible
30 Sep 8.5 14:46:24 10° W 15:34:51 25° SW 18:17:14 10° SW visible
01 Oct 6.6 10:59:01 10° W 11:18:27 50° SSW 18:08:59 10° SSW visible
03 Oct 8.5 14:37:45 10° W 15:25:27 24° SW 18:01:24 10° SW visible
04 Oct 6.6 10:49:51 10° W 11:09:09 49° SSW 17:54:37 10° SSW visible
